Home > Weather > Surgut > Past weeks

Flag for Russia Weather for the Past 2 Weeks in Surgut, Russia

Now
18 °F

Passing clouds.


Feels Like: 12 °F
Forecast: 5 / 12 °F
Wind: 3 mph from Southeast

Location: Surgut Airport

Current Time: Feb 7, 2016 at 6:39:41 PM

Latest Report: Feb 7, 2016 at 6:00 PM


Visibility: 4 mi

Pressure: 29.83 "Hg

Humidity: 86%

Dew point: 14 °F

Location of SurgutLocation

Historic Weather in Surgut — Graph

°F

Surgut Temperature Yesterday

Maximum temperature yesterday: 27 °F (at 2:30 PM)
Minimum temperature yesterday: 14 °F (at 11:00 PM)
Average temperature yesterday: 20 °F

High & Low Weather Summary for the Past Weeks

 TemperatureHumidityPressure
High27 °F (Feb 3, 1:30 PM)100% (Feb 2, 9:00 AM)31.07 "Hg (Feb 2, 9:00 AM)
Low-13 °F (Jan 27, 11:00 PM)60% (Jan 28, 12:30 PM)29.50 "Hg (Feb 6, 9:30 AM)
Average6 °F83%30.30 "Hg
* Reported Jan 23 5:00 PM — Feb 7 5:30 PM, Surgut, Weather by CustomWeather, © 2016

Note: Actual official high and low records may vary slightly from our data, if they occured in-between our weather recording intervals... More about our weather records

Advertising

Surgut Weather History for the Previous 24 Hours

 ConditionsComfort  
Time TempWeatherWind HumidityBarometerVisibility
5:30 PM
Sun, Feb 7
16 °FPassing clouds.3 mph93%29.83 "Hg4 mi
5:00 PM16 °FScattered clouds.3 mph93%29.83 "Hg4 mi
4:30 PM16 °FClear.3 mph93%29.86 "Hg4 mi
4:00 PM18 °FClear.3 mph86%29.86 "Hg4 mi
3:30 PM16 °FClear.3 mph93%29.86 "Hg4 mi
3:00 PM18 °FClear.3 mph79%29.86 "Hg4 mi
2:30 PM18 °FClear.3 mph79%29.86 "Hg4 mi
2:00 PM16 °FClear.3 mph86%29.86 "Hg4 mi
1:30 PM18 °FClear.6 mph79%29.86 "Hg4 mi
1:00 PM19 °FClear.6 mph79%29.86 "Hg4 mi
12:30 PM14 °FClear.6 mph92%29.86 "Hg4 mi
12:00 PM12 °FClear.6 mph92%29.89 "Hg4 mi
11:30 AM12 °FClear.6 mph85%29.86 "Hg4 mi
11:00 AM10 °FClear.6 mph92%29.86 "Hg4 mi
10:30 AM10 °FClear.6 mph85%29.89 "Hg4 mi
10:00 AM9 °FClear.6 mph92%29.89 "Hg4 mi
9:30 AM9 °FClear.6 mph85%29.86 "Hg4 mi
9:00 AM7 °FClear.3 mph92%29.86 "Hg4 mi
8:30 AM7 °FClear.3 mph85%29.86 "Hg4 mi
8:00 AM7 °FClear.6 mph92%29.86 "Hg4 mi
7:30 AM7 °FClear.3 mph92%29.86 "Hg4 mi
7:00 AM7 °FClear.3 mph92%29.86 "Hg4 mi
6:30 AM7 °FClear.3 mph92%29.86 "Hg4 mi
6:00 AM7 °FClear.3 mph92%29.86 "Hg4 mi
5:30 AM9 °FClear.6 mph85%29.86 "Hg4 mi
5:00 AM9 °FClear.6 mph92%29.86 "Hg4 mi
4:30 AM9 °FClear.6 mph92%29.86 "Hg4 mi
4:00 AM9 °FClear.6 mph92%29.86 "Hg4 mi
3:30 AM10 °FClear.6 mph85%29.86 "Hg4 mi
3:00 AM10 °FClear.6 mph92%29.83 "Hg4 mi
2:00 AM10 °FClear.6 mph92%29.83 "Hg4 mi
1:30 AM12 °FClear.6 mph85%29.83 "Hg4 mi
1:00 AM14 °FClear.8 mph85%29.80 "Hg4 mi
12:30 AM14 °FClear.10 mph85%29.80 "Hg4 mi
12:00 AM14 °FPassing clouds.10 mph85%29.80 "Hg4 mi
11:30 PM
Sat, Feb 6
14 °FPassing clouds.13 mph85%29.77 "Hg4 mi
11:00 PM14 °FPassing clouds.13 mph85%29.77 "Hg4 mi
10:30 PM16 °FPassing clouds.15 mph79%29.77 "Hg4 mi
10:00 PM16 °FClear.13 mph86%29.74 "Hg4 mi
9:30 PM16 °FClear.15 mph86%29.74 "Hg4 mi
9:00 PM16 °FClear.15 mph86%29.71 "Hg4 mi
8:30 PM18 °FClear.13 mph79%29.71 "Hg4 mi
8:00 PM18 °FLow level haze.15 mph86%29.71 "Hg4 mi
7:30 PM19 °FSnow flurries. Passing clouds.20 mph86%29.68 "Hg4 mi
7:00 PM21 °FSnow flurries. Partly cloudy.17 mph86%29.68 "Hg4 mi
6:30 PM21 °FPartly cloudy.17 mph86%29.65 "Hg4 mi
6:00 PM21 °FPartly cloudy.17 mph86%29.65 "Hg4 mi
Weather by CustomWeather, © 2016

See weather overviewHow to use our weather pages